Location: Christianberg
(48.9086°N, 14.0209°E)
Time: 21:17:55
(UTC+00:00)

BREEZE-M R/B - Pass Details

Date: 20 June 2021
Orbit: 579 x 26589 km, 48.9° (Epoch: 31 July)

Event Time Altitude Azimuth Distance (km) Brightness Sun altitude
Exits shadow 01:16:18 18° 218° (SW) 1,455 3.8 -12.0°
Maximum altitude 01:18:39 47° 149° (SSE) 884 3.1 -11.8°
Drops below altitude 10° 01:24:13 10° 76° (ENE) 3,209 6.9 -11.3°
Sets 01:28:58 0° 71° (ENE) 5,511 8.3 -10.9°
